QPF
0.01 0.01 0.01 0.00 0.00 0.01 0.01 0.01 0.00 0.00 0.00 0.00 0.00 0.00 0.00 0.01 0.01 0.01 0.02 0.02 0.01 0.01 0.02 0.03 0.03 0.03 0.04 0.04 0.03 0.03 0.04 0.03 0.02 0.03 0.04 0.05 0.05 0.04 0.04 0.03 0.02 0.04 0.05 0.04
0.01 0.01 0.00 0.00 0.00 0.00 0.01 0.01 0.00 0.00 0.00 0.00 0.00 0.00 0.00 0.01 0.01 0.01 0.01 0.02 0.02 0.01 0.01 0.01 0.01 0.01 0.02 0.03 0.03 0.03 0.02 0.03 0.03 0.02 0.02 0.03 0.04 0.04 0.04 0.04 0.04 0.06 0.08 0.07
0.01 0.00 0.00 0.00 0.00 0.00 0.00 0.00 0.00 0.01 0.00 0.00 0.00 0.00 0.00 0.00 0.01 0.01 0.01 0.01 0.01 0.01 0.01 0.01 0.01 0.00 0.01 0.01 0.02 0.02 0.02 0.02 0.02 0.02 0.02 0.02 0.03 0.03 0.03 0.03 0.04 0.07 0.09 0.10
0.01 0.00 0.00 0.00 0.00 0.00 0.00 0.00 0.00 0.01 0.00 0.00 0.00 0.01 0.00 0.00 0.01 0.01 0.01 0.01 0.01 0.01 0.01 0.01 0.00 0.00 0.00 0.00 0.01 0.01 0.01 0.01 0.01 0.01 0.02 0.02 0.01 0.02 0.01 0.02 0.03 0.04 0.08 0.11
0.01 0.00 0.00 0.00 0.00 0.00 0.00 0.00 0.01 0.01 0.01 0.01 0.00 0.00 0.00 0.00 0.00 0.00 0.01 0.00 0.01 0.01 0.01 0.01 0.00 0.00 0.00 0.00 0.00 0.01 0.01 0.01 0.02 0.01 0.02 0.02 0.02 0.02 0.02 0.02 0.03 0.04 0.06 0.08
0.01 0.01 0.00 0.00 0.00 0.00 0.00 0.01 0.01 0.01 0.01 0.01 0.00 0.00 0.01 0.00 0.00 0.00 0.00 0.00 0.00 0.00 0.01 0.01 0.00 0.00 0.00 0.00 0.00 0.00 0.00 0.00 0.00 0.01 0.01 0.01 0.01 0.02 0.03 0.03 0.04 0.04 0.05 0.06
0.01 0.01 0.01 0.00 0.00 0.00 0.01 0.01 0.02 0.02 0.02 0.01 0.00 0.00 0.00 0.00 0.00 0.00 0.00 0.00 0.00 0.00 0.00 0.00 0.00 0.00 0.00 0.00 0.00 0.00 0.00 0.00 0.00 0.00 0.00 0.00 0.01 0.01 0.02 0.03 0.04 0.04 0.04 0.05
0.01 0.01 0.01 0.00 0.00 0.00 0.01 0.01 0.01 0.01 0.01 0.00 0.00 0.00 0.00 0.00 0.00 0.00 0.00 0.00 0.00 0.00 0.00 0.00 0.00 0.00 0.00 0.00 0.00 0.00 0.00 0.00 0.00 0.00 0.00 0.00 0.01 0.01 0.02 0.02 0.02 0.02 0.02 0.03
0.01 0.01 0.00 0.00 0.00 0.00 0.01 0.01 0.01 0.01 0.01 0.01 0.00 0.00 0.00 0.00 0.00 0.00 0.00 0.00 0.00 0.00 0.00 0.00 0.01 0.01 0.00 0.00 0.00 0.00 0.00 0.00 0.00 0.00 0.00 0.00 0.01 0.01 0.01 0.01 0.01 0.01 0.01 0.01
0.02 0.01 0.00 0.00 0.00 0.01 0.01 0.01 0.01 0.02 0.02 0.01 0.00 0.00 0.00 0.00 0.00 0.00 0.00 0.00 0.00 0.00 0.00 0.00 0.01 0.01 0.01 0.00 0.00 0.00 0.00 0.00 0.00 0.00 0.00 0.00 0.00 0.00 0.00 0.01 0.01 0.01 0.01 0.01
0.02 0.02 0.01 0.01 0.01 0.01 0.01 0.01 0.01 0.02 0.01 0.01 0.00 0.00 0.00 0.00 0.00 0.00 0.00 0.00 0.00 0.00 0.00 0.00 0.01 0.01 0.01 0.01 0.00 0.00 0.00 0.00 0.00 0.00 0.00 0.00 0.00 0.00 0.00 0.01 0.01 0.00 0.00 0.01
0.01 0.02 0.01 0.01 0.01 0.01 0.01 0.01 0.02 0.02 0.02 0.01 0.01 0.00 0.00 0.00 0.00 0.00 0.00 0.00 0.00 0.00 0.00 0.00 0.01 0.01 0.01 0.01 0.01 0.01 0.00 0.00 0.00 0.00 0.00 0.00 0.00 0.00 0.00 0.00 0.00 0.00 0.01 0.01
0.02 0.03 0.02 0.01 0.01 0.01 0.02 0.02 0.02 0.02 0.02 0.02 0.01 0.01 0.00 0.00 0.00 0.00 0.00 0.00 0.00 0.00 0.00 0.00 0.00 0.00 0.01 0.01 0.01 0.01 0.01 0.01 0.00 0.00 0.00 0.01 0.01 0.00 0.00 0.00 0.00 0.01 0.01 0.01
0.02 0.03 0.02 0.01 0.01 0.01 0.02 0.01 0.01 0.03 0.04 0.03 0.01 0.01 0.01 0.01 0.00 0.00 0.00 0.00 0.00 0.00 0.00 0.00 0.00 0.00 0.00 0.00 0.01 0.01 0.01 0.01 0.01 0.01 0.00 0.01 0.01 0.01 0.01 0.01 0.01 0.01 0.01 0.01
0.03 0.03 0.01 0.01 0.01 0.01 0.01 0.01 0.01 0.02 0.02 0.02 0.01 0.01 0.01 0.01 0.01 0.01 0.00 0.00 0.00 0.00 0.00 0.00 0.00 0.00 0.00 0.00 0.00 0.00 0.00 0.01 0.01 0.01 0.01 0.01 0.01 0.01 0.01 0.01 0.01 0.01 0.01 0.01
0.03 0.03 0.01 0.01 0.00 0.00 0.01 0.00 0.01 0.01 0.01 0.01 0.01 0.01 0.01 0.01 0.01 0.01 0.01 0.01 0.00 0.00 0.00 0.00 0.00 0.00 0.00 0.00 0.00 0.00 0.00 0.00 0.01 0.01 0.01 0.01 0.01 0.01 0.01 0.01 0.01 0.01 0.01 0.01
0.04 0.04 0.03 0.02 0.00 0.01 0.01 0.00 0.00 0.00 0.01 0.01 0.01 0.01 0.01 0.00 0.00 0.01 0.01 0.01 0.01 0.01 0.00 0.00 0.00 0.01 0.00 0.00 0.00 0.00 0.00 0.00 0.00 0.01 0.01 0.01 0.01 0.01 0.01 0.01 0.01 0.01 0.01 0.01
0.03 0.04 0.05 0.04 0.02 0.02 0.01 0.00 0.00 0.00 0.01 0.01 0.01 0.01 0.01 0.01 0.01 0.01 0.01 0.01 0.01 0.01 0.01 0.01 0.01 0.01 0.01 0.01 0.01 0.01 0.01 0.01 0.01 0.01 0.01 0.00 0.00 0.01 0.01 0.01 0.01 0.01 0.01 0.01
0.02 0.04 0.07 0.06 0.04 0.02 0.01 0.00 0.01 0.01 0.01 0.01 0.01 0.01 0.01 0.01 0.01 0.01 0.01 0.01 0.01 0.01 0.01 0.01 0.01 0.01 0.01 0.01 0.01 0.01 0.01 0.01 0.01 0.01 0.01 0.01 0.01 0.01 0.01 0.01 0.01 0.01 0.01 0.01
0.02 0.05 0.08 0.08 0.05 0.02 0.01 0.00 0.00 0.01 0.01 0.01 0.01 0.01 0.01 0.01 0.01 0.01 0.01 0.01 0.00 0.00 0.00 0.01 0.01 0.01 0.01 0.01 0.01 0.01 0.01 0.01 0.01 0.01 0.01 0.01 0.01 0.01 0.01 0.01 0.01 0.01 0.01 0.01
0.02 0.05 0.08 0.07 0.05 0.02 0.01 0.01 0.01 0.01 0.01 0.01 0.00 0.00 0.01 0.01 0.01 0.02 0.01 0.01 0.00 0.00 0.00 0.00 0.00 0.00 0.00 0.00 0.00 0.01 0.01 0.01 0.01 0.01 0.01 0.01 0.01 0.01 0.01 0.01 0.01 0.01 0.01 0.01
0.01 0.02 0.03 0.03 0.05 0.03 0.01 0.01 0.01 0.02 0.01 0.01 0.00 0.00 0.01 0.01 0.01 0.01 0.02 0.01 0.01 0.00 0.00 0.00 0.00 0.00 0.00 0.00 0.00 0.00 0.00 0.01 0.01 0.01 0.01 0.01 0.01 0.01 0.01 0.01 0.01 0.01 0.00 0.00
0.01 0.02 0.02 0.02 0.02 0.01 0.01 0.01 0.01 0.01 0.01 0.01 0.00 0.00 0.00 0.00 0.00 0.01 0.01 0.01 0.00 0.00 0.00 0.00 0.00 0.00 0.00 0.00 0.00 0.00 0.00 0.01 0.01 0.01 0.01 0.01 0.01 0.01 0.01 0.01 0.01 0.01 0.01 0.01
0.02 0.03 0.04 0.03 0.02 0.01 0.01 0.01 0.01 0.01 0.00 0.00 0.00 0.01 0.01 0.00 0.00 0.00 0.00 0.00 0.00 0.00 0.00 0.00 0.00 0.00 0.01 0.01 0.01 0.01 0.01 0.01 0.01 0.01 0.01 0.01 0.01 0.01 0.01 0.01 0.01 0.01 0.01 0.01
0.02 0.03 0.03 0.03 0.02 0.02 0.02 0.02 0.01 0.01 0.01 0.01 0.01 0.01 0.01 0.01 0.01 0.00 0.00 0.00 0.00 0.00 0.00 0.01 0.01 0.01 0.01 0.01 0.01 0.01 0.01 0.01 0.01 0.01 0.01 0.01 0.01 0.01 0.01 0.01 0.01 0.01 0.01 0.01
0.02 0.02 0.02 0.02 0.02 0.02 0.02 0.02 0.02 0.02 0.01 0.01 0.01 0.01 0.01 0.01 0.01 0.00 0.00 0.00 0.00 0.01 0.01 0.01 0.01 0.01 0.01 0.01 0.01 0.01 0.01 0.01 0.01 0.01 0.01 0.01 0.01 0.01 0.01 0.01 0.01 0.01 0.01 0.01
MSLP
1021.19 1021.15 1021.11 1021.07 1021.03 1021.00 1020.96 1020.87 1020.71 1020.44 1020.06 1019.56 1018.95 1018.26 1017.55 1016.86 1016.25 1015.74 1015.37 1015.13 1015.01 1015.00 1015.08 1015.24 1015.45 1015.72 1016.05 1016.44 1016.89 1017.39 1017.93 1018.49 1019.05 1019.60 1020.13 1020.63 1021.12 1021.60 1022.08 1022.58 1023.08 1023.59 1024.10 1024.61
1021.29 1021.24 1021.19 1021.16 1021.14 1021.13 1021.11 1021.04 1020.88 1020.60 1020.17 1019.61 1018.93 1018.17 1017.39 1016.65 1016.00 1015.49 1015.12 1014.90 1014.80 1014.82 1014.90 1015.04 1015.22 1015.42 1015.67 1015.96 1016.31 1016.71 1017.17 1017.67 1018.19 1018.72 1019.24 1019.75 1020.25 1020.73 1021.21 1021.70 1022.19 1022.70 1023.21 1023.73
1021.42 1021.36 1021.32 1021.30 1021.32 1021.34 1021.34 1021.27 1021.10 1020.78 1020.30 1019.67 1018.91 1018.08 1017.23 1016.46 1015.80 1015.29 1014.95 1014.77 1014.72 1014.77 1014.87 1014.98 1015.11 1015.23 1015.37 1015.54 1015.77 1016.05 1016.41 1016.82 1017.29 1017.78 1018.27 1018.77 1019.26 1019.73 1020.20 1020.67 1021.15 1021.65 1022.16 1022.69
1021.55 1021.50 1021.48 1021.50 1021.55 1021.61 1021.64 1021.58 1021.38 1021.02 1020.47 1019.75 1018.90 1017.99 1017.09 1016.28 1015.61 1015.13 1014.84 1014.72 1014.72 1014.79 1014.90 1014.99 1015.06 1015.09 1015.12 1015.16 1015.25 1015.40 1015.64 1015.96 1016.35 1016.78 1017.23 1017.70 1018.15 1018.59 1019.03 1019.48 1019.94 1020.43 1020.94 1021.49
1021.64 1021.61 1021.63 1021.71 1021.82 1021.93 1021.99 1021.94 1021.72 1021.30 1020.68 1019.87 1018.93 1017.93 1016.97 1016.13 1015.47 1015.01 1014.76 1014.68 1014.73 1014.83 1014.94 1015.00 1015.00 1014.94 1014.85 1014.77 1014.72 1014.75 1014.87 1015.09 1015.39 1015.74 1016.14 1016.54 1016.95 1017.35 1017.75 1018.16 1018.60 1019.07 1019.59 1020.16
1021.64 1021.65 1021.74 1021.89 1022.08 1022.26 1022.37 1022.33 1022.09 1021.62 1020.93 1020.03 1019.00 1017.93 1016.91 1016.03 1015.36 1014.92 1014.70 1014.66 1014.74 1014.86 1014.95 1014.97 1014.91 1014.76 1014.57 1014.36 1014.20 1014.10 1014.11 1014.23 1014.43 1014.70 1015.02 1015.35 1015.69 1016.03 1016.38 1016.75 1017.17 1017.63 1018.16 1018.75
1021.53 1021.60 1021.76 1022.00 1022.28 1022.54 1022.71 1022.70 1022.45 1021.95 1021.18 1020.21 1019.11 1017.97 1016.90 1015.99 1015.31 1014.87 1014.67 1014.65 1014.74 1014.85 1014.93 1014.91 1014.78 1014.55 1014.26 1013.95 1013.68 1013.48 1013.39 1013.41 1013.52 1013.70 1013.92 1014.17 1014.43 1014.70 1014.99 1015.32 1015.71 1016.17 1016.71 1017.32
1021.33 1021.46 1021.70 1022.04 1022.41 1022.75 1022.97 1022.99 1022.74 1022.21 1021.40 1020.37 1019.20 1018.02 1016.91 1015.98 1015.29 1014.87 1014.67 1014.66 1014.74 1014.84 1014.88 1014.82 1014.63 1014.33 1013.96 1013.57 1013.21 1012.93 1012.75 1012.67 1012.69 1012.77 1012.90 1013.06 1013.23 1013.42 1013.65 1013.94 1014.30 1014.76 1015.30 1015.94
1021.11 1021.29 1021.60 1022.01 1022.46 1022.86 1023.13 1023.16 1022.91 1022.35 1021.50 1020.44 1019.24 1018.02 1016.90 1015.98 1015.30 1014.89 1014.70 1014.69 1014.77 1014.85 1014.85 1014.75 1014.50 1014.15 1013.72 1013.26 1012.84 1012.48 1012.22 1012.06 1011.99 1011.98 1012.01 1012.06 1012.14 1012.25 1012.41 1012.65 1012.99 1013.43 1013.99 1014.64
1020.93 1021.14 1021.51 1021.97 1022.46 1022.89 1023.16 1023.18 1022.91 1022.32 1021.45 1020.35 1019.15 1017.94 1016.84 1015.95 1015.30 1014.92 1014.76 1014.76 1014.83 1014.89 1014.87 1014.72 1014.44 1014.04 1013.56 1013.06 1012.58 1012.17 1011.85 1011.61 1011.45 1011.34 1011.27 1011.23 1011.21 1011.23 1011.32 1011.50 1011.80 1012.23 1012.78 1013.44
1020.89 1021.12 1021.50 1021.96 1022.45 1022.85 1023.08 1023.05 1022.72 1022.09 1021.18 1020.08 1018.89 1017.71 1016.67 1015.83 1015.25 1014.92 1014.81 1014.83 1014.91 1014.97 1014.94 1014.77 1014.46 1014.03 1013.53 1012.99 1012.48 1012.02 1011.65 1011.34 1011.09 1010.89 1010.72 1010.57 1010.45 1010.38 1010.39 1010.52 1010.77 1011.17 1011.70 1012.35
1021.05 1021.26 1021.61 1022.03 1022.45 1022.77 1022.90 1022.78 1022.36 1021.66 1020.71 1019.60 1018.44 1017.32 1016.36 1015.61 1015.12 1014.88 1014.82 1014.90 1015.01 1015.08 1015.04 1014.87 1014.55 1014.11 1013.60 1013.05 1012.52 1012.03 1011.60 1011.23 1010.91 1010.62 1010.35 1010.10 1009.88 1009.71 1009.64 1009.70 1009.90 1010.25 1010.75 1011.37
1021.40 1021.57 1021.85 1022.18 1022.47 1022.65 1022.64 1022.38 1021.84 1021.05 1020.06 1018.95 1017.83 1016.78 1015.92 1015.28 1014.90 1014.76 1014.79 1014.92 1015.08 1015.17 1015.16 1014.99 1014.68 1014.25 1013.74 1013.20 1012.66 1012.15 1011.69 1011.27 1010.88 1010.50 1010.14 1009.79 1009.47 1009.22 1009.06 1009.04 1009.17 1009.46 1009.91 1010.48
1021.87 1021.98 1022.15 1022.35 1022.48 1022.48 1022.29 1021.87 1021.20 1020.31 1019.28 1018.17 1017.10 1016.14 1015.38 1014.87 1014.61 1014.57 1014.69 1014.89 1015.10 1015.23 1015.24 1015.10 1014.82 1014.41 1013.92 1013.39 1012.86 1012.35 1011.86 1011.40 1010.96 1010.51 1010.07 1009.64 1009.23 1008.89 1008.65 1008.55 1008.60 1008.82 1009.20 1009.71
1022.37 1022.38 1022.43 1022.46 1022.41 1022.22 1021.84 1021.25 1020.45 1019.49 1018.42 1017.34 1016.32 1015.47 1014.82 1014.43 1014.29 1014.35 1014.55 1014.81 1015.06 1015.23 1015.27 1015.16 1014.90 1014.53 1014.08 1013.58 1013.07 1012.57 1012.08 1011.59 1011.11 1010.61 1010.11 1009.60 1009.12 1008.70 1008.39 1008.21 1008.18 1008.32 1008.62 1009.05
1022.75 1022.64 1022.55 1022.41 1022.18 1021.80 1021.26 1020.53 1019.63 1018.61 1017.54 1016.51 1015.58 1014.82 1014.30 1014.03 1013.98 1014.12 1014.39 1014.69 1014.97 1015.16 1015.22 1015.14 1014.92 1014.59 1014.17 1013.72 1013.24 1012.76 1012.28 1011.80 1011.29 1010.76 1010.21 1009.66 1009.12 1008.64 1008.26 1008.01 1007.90 1007.96 1008.18 1008.52
1022.90 1022.67 1022.42 1022.12 1021.73 1021.20 1020.52 1019.69 1018.75 1017.73 1016.70 1015.75 1014.92 1014.29 1013.89 1013.72 1013.75 1013.95 1014.25 1014.58 1014.86 1015.06 1015.13 1015.06 1014.86 1014.57 1014.20 1013.79 1013.36 1012.91 1012.45 1011.97 1011.47 1010.93 1010.36 1009.77 1009.20 1008.67 1008.24 1007.93 1007.76 1007.74 1007.86 1008.11
1022.77 1022.40 1022.01 1021.57 1021.03 1020.39 1019.64 1018.78 1017.84 1016.88 1015.95 1015.11 1014.42 1013.93 1013.64 1013.56 1013.66 1013.90 1014.20 1014.52 1014.78 1014.95 1015.01 1014.94 1014.77 1014.50 1014.17 1013.81 1013.41 1013.01 1012.58 1012.12 1011.62 1011.08 1010.50 1009.90 1009.31 1008.76 1008.29 1007.93 1007.70 1007.61 1007.66 1007.82
1022.38 1021.88 1021.36 1020.79 1020.16 1019.46 1018.68 1017.85 1016.98 1016.13 1015.34 1014.66 1014.12 1013.77 1013.60 1013.61 1013.75 1014.00 1014.29 1014.57 1014.79 1014.92 1014.95 1014.87 1014.69 1014.44 1014.14 1013.81 1013.45 1013.07 1012.67 1012.23 1011.74 1011.20 1010.62 1010.02 1009.41 1008.85 1008.35 1007.95 1007.68 1007.53 1007.50 1007.58
1021.86 1021.23 1020.60 1019.93 1019.24 1018.52 1017.76 1016.99 1016.24 1015.54 1014.91 1014.41 1014.05 1013.84 1013.78 1013.87 1014.05 1014.30 1014.56 1014.79 1014.95 1015.03 1015.01 1014.90 1014.71 1014.47 1014.18 1013.86 1013.52 1013.16 1012.77 1012.33 1011.84 1011.30 1010.71 1010.10 1009.48 1008.90 1008.38 1007.96 1007.64 1007.44 1007.34 1007.35
1021.33 1020.61 1019.88 1019.16 1018.43 1017.72 1017.02 1016.34 1015.73 1015.18 1014.74 1014.42 1014.22 1014.16 1014.21 1014.36 1014.58 1014.81 1015.04 1015.22 1015.32 1015.34 1015.27 1015.13 1014.91 1014.65 1014.36 1014.04 1013.70 1013.33 1012.92 1012.46 1011.96 1011.39 1010.78 1010.15 1009.51 1008.90 1008.35 1007.89 1007.53 1007.28 1007.12 1007.05
1020.93 1020.15 1019.38 1018.62 1017.89 1017.21 1016.57 1016.01 1015.53 1015.14 1014.87 1014.71 1014.67 1014.73 1014.88 1015.09 1015.32 1015.55 1015.74 1015.87 1015.93 1015.89 1015.78 1015.59 1015.35 1015.06 1014.74 1014.40 1014.03 1013.63 1013.18 1012.69 1012.13 1011.52 1010.86 1010.18 1009.50 1008.85 1008.26 1007.74 1007.33 1007.02 1006.80 1006.66
1020.78 1019.97 1019.18 1018.43 1017.73 1017.08 1016.52 1016.06 1015.70 1015.45 1015.32 1015.29 1015.37 1015.54 1015.76 1016.02 1016.27 1016.50 1016.67 1016.76 1016.77 1016.70 1016.54 1016.32 1016.04 1015.72 1015.37 1014.98 1014.57 1014.11 1013.60 1013.04 1012.41 1011.73 1011.00 1010.25 1009.49 1008.77 1008.11 1007.53 1007.04 1006.66 1006.37 1006.16
1020.85 1020.08 1019.33 1018.61 1017.95 1017.37 1016.88 1016.50 1016.24 1016.10 1016.07 1016.15 1016.32 1016.56 1016.84 1017.12 1017.39 1017.61 1017.77 1017.84 1017.82 1017.72 1017.54 1017.28 1016.97 1016.62 1016.22 1015.79 1015.31 1014.78 1014.20 1013.55 1012.83 1012.06 1011.23 1010.38 1009.54 1008.72 1007.96 1007.29 1006.71 1006.23 1005.86 1005.57
1021.09 1020.40 1019.72 1019.07 1018.49 1017.98 1017.58 1017.28 1017.10 1017.04 1017.09 1017.23 1017.46 1017.74 1018.05 1018.35 1018.62 1018.84 1018.99 1019.05 1019.02 1018.90 1018.69 1018.41 1018.08 1017.69 1017.25 1016.76 1016.22 1015.62 1014.96 1014.22 1013.41 1012.53 1011.60 1010.65 1009.69 1008.76 1007.88 1007.09 1006.40 1005.81 1005.33 1004.95
1021.35 1020.77 1020.19 1019.66 1019.17 1018.77 1018.46 1018.25 1018.14 1018.15 1018.25 1018.44 1018.70 1019.00 1019.32 1019.62 1019.89 1020.10 1020.24 1020.29 1020.25 1020.11 1019.90 1019.61 1019.25 1018.83 1018.36 1017.82 1017.23 1016.57 1015.83 1015.01 1014.11 1013.14 1012.12 1011.06 1009.99 1008.94 1007.94 1007.02 1006.20 1005.48 1004.88 1004.39
Thickness
5545 5549 5554 5558 5556 5560 5562 5564 5567 5566 5558 5557 5563 5569 5578 5578 5576 5579 5581 5583 5583 5585 5585 5583 5582 5582 5582 5583 5584 5584 5582 5581 5579 5579 5578 5578 5577 5576 5574 5574 5573 5572 5572 5571
5538 5542 5546 5544 5543 5544 5548 5552 5558 5555 5547 5549 5555 5563 5572 5573 5572 5573 5572 5573 5574 5576 5578 5577 5576 5576 5576 5577 5577 5577 5576 5575 5574 5573 5573 5572 5571 5570 5569 5567 5566 5565 5565 5564
5538 5539 5534 5534 5535 5536 5540 5545 5549 5546 5540 5540 5544 5565 5572 5569 5563 5561 5562 5564 5566 5567 5568 5569 5568 5570 5569 5569 5570 5570 5569 5568 5568 5567 5565 5564 5563 5563 5562 5561 5560 5559 5558 5558
5528 5527 5525 5527 5529 5531 5537 5537 5535 5533 5534 5543 5540 5557 5571 5566 5558 5558 5558 5558 5560 5560 5560 5560 5560 5562 5562 5562 5562 5561 5561 5561 5560 5560 5560 5559 5560 5560 5559 5556 5553 5552 5551 5551
5521 5516 5518 5521 5524 5522 5527 5523 5524 5524 5525 5527 5534 5537 5565 5555 5556 5557 5554 5551 5551 5551 5552 5552 5552 5553 5554 5553 5553 5553 5554 5553 5553 5552 5553 5553 5553 5553 5551 5548 5546 5545 5544 5543
5510 5507 5510 5515 5512 5513 5512 5513 5513 5513 5516 5519 5535 5535 5558 5558 5556 5552 5546 5542 5541 5541 5542 5542 5542 5543 5544 5544 5544 5545 5546 5545 5545 5545 5545 5545 5545 5545 5543 5541 5540 5539 5537 5536
5503 5502 5499 5501 5504 5502 5506 5511 5512 5513 5513 5527 5525 5527 5546 5546 5540 5537 5535 5532 5531 5531 5532 5532 5532 5533 5533 5534 5535 5536 5537 5537 5536 5536 5536 5537 5537 5537 5536 5534 5533 5532 5531 5530
5499 5505 5497 5494 5501 5502 5502 5509 5513 5516 5521 5527 5513 5525 5537 5530 5524 5522 5521 5520 5519 5520 5521 5521 5522 5522 5522 5523 5524 5525 5527 5527 5527 5527 5527 5527 5527 5527 5527 5526 5526 5525 5524 5523
5493 5497 5485 5484 5486 5494 5496 5499 5503 5501 5487 5497 5522 5521 5522 5520 5516 5513 5511 5511 5510 5510 5510 5510 5511 5512 5512 5512 5512 5514 5516 5516 5517 5517 5517 5517 5517 5517 5517 5517 5516 5516 5516 5515
5478 5480 5477 5472 5476 5479 5484 5489 5486 5491 5495 5506 5515 5519 5533 5520 5516 5511 5506 5504 5502 5501 5500 5500 5500 5500 5500 5500 5501 5503 5504 5505 5506 5506 5506 5506 5506 5506 5506 5506 5506 5506 5507 5506
5463 5466 5464 5462 5467 5477 5471 5472 5478 5485 5489 5499 5508 5522 5515 5513 5508 5503 5499 5495 5492 5491 5491 5490 5489 5489 5488 5489 5490 5491 5492 5493 5494 5494 5495 5496 5496 5496 5496 5496 5495 5495 5496 5496
5452 5456 5460 5461 5456 5456 5464 5470 5472 5479 5477 5480 5495 5506 5494 5493 5494 5490 5486 5482 5481 5479 5479 5478 5478 5478 5478 5478 5478 5479 5480 5481 5482 5483 5483 5484 5485 5485 5486 5486 5485 5485 5486 5486
5439 5440 5449 5457 5451 5440 5443 5451 5456 5462 5468 5473 5482 5495 5481 5477 5476 5475 5473 5471 5470 5468 5468 5467 5467 5467 5467 5467 5467 5468 5468 5468 5469 5470 5471 5473 5473 5474 5475 5475 5475 5475 5475 5475
5431 5426 5437 5457 5460 5445 5437 5439 5443 5446 5458 5466 5475 5485 5479 5471 5468 5465 5461 5459 5459 5457 5456 5456 5456 5455 5455 5454 5455 5456 5456 5456 5457 5458 5459 5460 5461 5462 5462 5463 5463 5463 5464 5464
5415 5415 5415 5426 5431 5428 5431 5434 5434 5437 5449 5456 5470 5470 5475 5468 5460 5454 5450 5448 5446 5446 5445 5445 5445 5444 5444 5443 5443 5444 5444 5444 5445 5445 5446 5447 5448 5449 5450 5450 5451 5451 5452 5452
5398 5401 5397 5402 5414 5413 5417 5426 5427 5430 5436 5445 5450 5457 5459 5451 5445 5441 5438 5435 5434 5434 5434 5434 5433 5432 5432 5431 5431 5432 5432 5432 5432 5433 5434 5435 5435 5436 5437 5438 5438 5439 5439 5440
5388 5386 5392 5405 5394 5395 5410 5428 5426 5425 5430 5435 5443 5452 5441 5434 5430 5428 5425 5424 5423 5422 5421 5420 5420 5420 5420 5419 5419 5419 5420 5420 5420 5421 5422 5422 5422 5423 5423 5424 5425 5426 5426 5426
5374 5374 5377 5384 5379 5396 5432 5423 5423 5422 5423 5421 5423 5426 5423 5421 5415 5411 5410 5409 5409 5409 5408 5407 5407 5407 5407 5406 5405 5406 5406 5406 5407 5408 5408 5408 5409 5409 5410 5410 5411 5412 5412 5413
5370 5370 5368 5369 5379 5398 5412 5405 5403 5407 5414 5406 5403 5403 5400 5397 5397 5399 5396 5394 5394 5394 5393 5392 5392 5392 5392 5392 5392 5392 5392 5392 5393 5393 5394 5394 5394 5395 5396 5397 5397 5398 5399 5399
5353 5356 5359 5358 5370 5382 5406 5390 5383 5389 5399 5388 5384 5383 5380 5381 5392 5396 5380 5376 5376 5376 5375 5375 5376 5376 5377 5377 5376 5377 5378 5378 5378 5378 5379 5379 5380 5382 5382 5383 5383 5384 5384 5385
5338 5340 5345 5352 5358 5373 5374 5363 5367 5379 5386 5366 5366 5367 5366 5367 5371 5366 5360 5358 5357 5357 5357 5358 5359 5359 5360 5360 5361 5362 5362 5362 5362 5363 5364 5364 5365 5367 5368 5368 5369 5369 5370 5370
5341 5340 5337 5340 5345 5362 5349 5347 5355 5357 5344 5343 5344 5344 5343 5343 5341 5340 5340 5339 5339 5339 5339 5340 5341 5341 5341 5342 5343 5345 5345 5345 5345 5347 5348 5349 5350 5351 5352 5353 5354 5354 5354 5355
5332 5337 5341 5340 5348 5336 5326 5328 5324 5322 5325 5325 5325 5324 5323 5323 5323 5322 5321 5321 5321 5320 5320 5321 5322 5322 5322 5323 5324 5326 5327 5327 5329 5331 5332 5333 5333 5334 5335 5337 5338 5338 5338 5339
5312 5305 5312 5313 5321 5315 5309 5306 5304 5304 5305 5305 5305 5305 5305 5306 5305 5304 5304 5303 5302 5301 5301 5301 5302 5303 5304 5304 5305 5306 5308 5309 5311 5313 5315 5316 5317 5318 5319 5320 5321 5322 5323 5324
5301 5291 5295 5298 5301 5295 5295 5292 5290 5288 5286 5286 5286 5286 5286 5288 5288 5286 5286 5285 5284 5283 5282 5283 5283 5285 5286 5286 5287 5288 5289 5291 5294 5296 5298 5299 5300 5301 5302 5303 5304 5305 5306 5307
5280 5281 5290 5301 5294 5289 5289 5282 5277 5274 5272 5271 5271 5271 5269 5269 5269 5268 5267 5266 5265 5265 5265 5265 5265 5266 5267 5268 5269 5270 5271 5273 5275 5278 5280 5281 5282 5283 5284 5286 5288 5289 5290 5290